Temperature
22 22 22 22 20 21 22 23 23 24 24 24 24 24 22 21 21 20 21 21 20 21 20 20 20 20 20 20 20 19 19 19 19 19 18 19 19 19 19 19 19 19 19 19 19 19 19 19 19
22 22 22 22 20 21 22 23 24 25 23 24 24 23 22 21 21 21 20 20 20 20 20 20 20 20 20 19 19 19 19 19 19 19 18 19 19 19 19 19 19 19 19 19 18 18 18 19 18
23 23 23 20 20 22 22 23 23 24 24 24 23 23 22 22 21 21 21 21 20 20 20 20 20 20 20 20 19 19 19 19 19 19 18 18 18 19 19 19 18 18 19 18 18 18 18 18 18
23 23 22 20 22 22 22 23 24 23 24 24 24 22 22 22 22 21 21 21 21 20 20 20 19 19 19 19 19 19 18 19 19 19 18 18 18 18 18 18 18 18 18 18 18 18 18 18 18
23 23 20 21 22 21 21 23 24 23 24 24 23 21 21 21 21 21 21 20 20 20 20 19 19 19 19 19 19 19 19 19 19 19 18 18 18 18 18 18 18 18 18 18 18 18 18 18 18
23 21 21 21 22 22 23 24 25 24 24 23 23 21 21 21 21 21 21 20 20 20 20 19 19 19 19 19 19 19 19 19 19 19 18 18 18 18 18 18 18 18 18 18 18 18 18 18 17
22 19 21 21 22 23 24 25 25 24 23 24 24 21 21 21 21 21 20 20 20 20 20 19 19 19 19 19 19 19 18 19 19 18 18 18 18 18 18 18 18 18 18 17 17 17 17 17 17
23 19 20 21 21 23 24 25 26 26 24 24 24 22 21 22 21 21 20 20 20 20 19 19 19 19 19 19 18 18 18 18 18 18 18 18 18 18 18 18 18 18 18 17 17 17 17 17 17
23 20 21 22 22 23 24 24 26 26 25 24 24 24 24 23 21 21 20 20 20 20 19 19 19 19 19 18 18 18 18 18 18 18 18 18 18 18 18 18 18 17 17 17 17 17 17 17 17
22 20 21 22 22 22 23 24 25 25 24 23 23 24 23 22 21 21 20 20 20 20 20 20 20 19 19 18 18 18 18 18 18 18 18 18 18 17 17 18 18 17 17 17 17 17 17 17 17
21 21 22 23 23 23 23 24 25 25 24 24 24 24 23 22 21 21 21 21 21 21 21 21 21 20 19 19 18 18 18 18 18 18 18 18 18 17 18 18 18 18 18 17 17 17 17 17 17
21 22 22 23 24 23 23 23 24 24 24 24 25 25 24 23 22 22 22 22 21 21 21 21 21 21 20 19 19 19 18 18 18 18 18 18 18 18 18 18 18 18 17 17 17 17 17 17 17
21 22 23 22 22 22 23 23 23 24 24 25 25 24 24 24 23 23 23 22 21 21 21 21 21 21 20 20 19 19 19 18 18 18 18 18 18 17 18 18 18 18 17 17 17 17 17 17 17
22 21 21 20 20 21 20 22 23 23 24 24 24 24 24 24 24 23 22 22 22 22 21 21 21 21 20 20 20 19 19 18 18 18 18 18 17 17 18 19 19 18 17 17 17 17 17 16 17
22 21 20 19 19 20 19 21 21 21 22 22 22 22 22 23 23 23 23 22 23 23 23 22 21 21 21 20 20 19 19 18 18 18 18 18 18 17 17 18 18 17 17 17 17 17 17 16 16
20 21 20 20 19 20 20 21 21 21 21 22 22 22 21 22 22 23 23 23 23 23 23 22 21 21 21 20 20 20 19 19 18 18 18 17 17 17 17 17 17 17 17 17 16 16 16 16 16
19 19 19 20 18 19 20 20 20 20 20 20 22 22 21 22 22 22 23 23 23 23 23 23 22 22 21 21 20 19 19 19 18 18 18 17 17 17 17 17 17 17 16 16 16 16 16 16 16
20 19 19 18 18 18 18 18 18 19 19 19 19 20 21 21 22 22 22 23 23 23 23 23 22 22 21 21 20 19 19 19 18 18 18 18 17 17 17 17 17 16 16 16 16 16 16 16 16
19 18 18 18 18 17 17 16 17 17 17 17 17 18 19 20 21 21 22 22 23 23 23 23 23 22 22 21 20 20 19 19 18 18 18 17 17 17 17 17 17 17 17 17 17 16 16 16 15
18 17 17 17 17 17 16 15 16 16 15 15 15 15 15 17 19 21 22 22 23 23 24 23 24 23 22 22 21 20 20 19 19 18 17 17 17 17 17 17 17 16 17 17 16 16 15 15 15
18 17 17 17 17 16 15 15 14 15 15 15 15 14 14 15 17 20 21 23 24 23 23 24 24 23 22 21 21 20 19 19 18 18 17 17 17 17 17 17 17 17 16 16 16 16 15 15 15
17 17 17 17 16 15 15 14 14 13 13 14 14 14 14 14 17 18 19 21 22 22 21 22 22 21 22 21 20 20 20 20 19 18 17 17 17 17 17 17 16 16 16 16 15 15 15 15 15
16 15 15 15 14 14 14 14 14 12 13 14 14 15 14 14 15 17 18 19 19 19 19 20 19 19 20 19 18 19 20 20 18 17 17 17 17 17 17 17 17 16 16 16 15 15 15 15 15
16 16 14 12 12 14 14 14 13 12 13 14 14 15 14 14 14 15 17 17 17 17 17 17 17 18 18 17 17 18 19 19 18 17 17 17 17 17 17 17 16 16 16 15 15 15 15 15 15
14 14 13 13 13 14 14 13 13 13 14 14 14 14 13 13 13 14 15 16 16 16 16 16 16 17 16 17 17 18 17 18 17 17 17 17 17 17 17 16 16 16 16 15 15 15 15 14 14
14 13 12 11 12 13 14 13 12 13 14 14 13 13 14 14 13 14 14 15 16 15 15 14 15 16 17 17 16 16 17 18 17 17 17 17 17 16 16 16 16 16 15 15 14 14 14 14 14
12 12 11 11 11 11 13 13 13 13 13 12 12 12 12 14 13 13 13 13 14 15 14 14 15 16 16 16 15 17 16 16 17 17 17 17 16 16 16 16 16 16 15 15 14 14 14 14 14
10 11 7 9 10 11 13 12 11 11 11 11 11 11 12 13 13 13 14 13 14 14 14 13 13 14 15 15 16 16 16 16 16 17 17 17 17 16 16 17 16 16 15 14 14 14 14 14 14
10 10 10 10 9 10 12 11 11 11 11 11 11 11 12 12 13 13 14 13 13 14 14 14 14 14 14 15 16 16 16 17 17 17 17 17 17 17 16 16 16 15 14 14 14 14 14 14 14
10 9 9 9 10 11 11 10 11 11 11 11 11 11 12 13 13 13 14 13 14 15 16 16 16 15 15 15 17 16 17 17 17 18 18 17 17 17 17 16 15 15 14 14 14 13 13 13 13
Wind_Speed
6 2 4 3 5 5 1 2 2 1 2 1 3 6 8 4 2 2 4 7 11 12 11 14 15 15 13 13 14 14 14 14 14 14 15 14 12 11 10 11 10 9 8 7 7 6 7 6 6
3 2 3 4 5 3 2 3 1 2 6 5 5 5 5 2 3 6 6 7 12 11 11 12 16 15 14 14 14 13 13 14 14 14 15 14 12 11 10 9 9 9 8 8 7 6 6 6 5
1 3 3 4 4 3 2 2 3 2 4 2 3 4 3 3 4 7 7 12 11 8 9 12 15 14 14 14 14 14 14 14 15 15 14 13 12 11 9 8 8 9 8 8 8 7 7 7 6
3 3 4 4 2 2 3 2 1 3 1 2 4 4 2 3 7 7 11 13 11 7 7 11 13 14 14 14 15 15 15 14 15 14 13 13 12 10 8 7 9 9 9 9 9 9 8 8 7
4 4 5 4 1 3 4 4 5 7 3 2 3 4 2 2 6 12 12 11 10 7 7 10 13 13 13 12 12 13 15 14 14 14 13 12 11 10 7 7 8 9 9 9 9 9 9 8 8
4 4 4 1 3 4 3 1 2 5 3 3 5 5 2 2 8 11 11 8 8 8 8 9 12 13 13 13 13 12 13 13 13 13 12 12 10 9 8 7 7 7 8 7 7 8 8 8 8
4 4 3 0 3 4 3 3 2 5 5 5 6 4 2 3 7 10 9 8 7 5 6 6 9 12 13 13 13 13 12 12 13 12 11 10 10 9 8 6 6 5 4 4 5 6 7 7 7
5 5 3 1 2 3 5 5 2 6 4 4 4 4 5 6 9 8 7 7 7 6 6 4 7 8 9 11 13 13 12 13 12 11 10 9 8 8 7 6 5 5 5 3 2 4 5 6 7
4 4 1 1 1 3 4 5 1 3 6 2 2 4 6 15 12 9 6 4 5 6 6 6 5 5 7 8 10 12 12 13 13 12 10 8 6 6 5 4 4 5 5 3 2 2 3 5 7
4 3 5 5 4 3 3 3 3 4 4 2 1 3 10 15 13 12 10 8 9 10 8 7 7 5 6 6 7 9 11 11 11 11 10 8 6 5 5 4 5 5 3 2 1 1 3 5 6
2 2 3 4 4 2 3 4 4 3 4 3 5 10 13 13 13 13 12 11 12 10 10 10 9 7 6 4 5 6 8 9 10 11 11 9 6 5 4 3 3 2 3 3 3 5 4 2 4
1 3 2 4 5 1 4 5 4 1 3 6 7 13 14 15 16 16 14 11 10 9 11 11 10 8 6 6 5 5 5 7 7 10 12 9 5 3 4 4 4 2 2 3 1 2 1 1 3
2 2 1 5 7 5 6 5 3 4 6 7 9 14 14 16 16 15 13 11 10 9 9 9 9 8 7 5 4 4 4 5 9 11 12 11 5 3 4 4 5 5 4 4 2 2 3 3 5
3 0 3 5 5 5 5 6 3 3 7 1 12 15 13 14 14 12 11 11 11 10 11 10 11 10 8 7 6 5 6 7 10 10 11 12 9 6 4 4 4 5 6 6 4 3 3 4 5
3 2 2 3 5 4 5 6 1 3 6 6 3 4 9 10 12 14 14 12 12 11 10 12 12 10 10 8 7 6 7 8 6 8 12 13 11 9 6 4 4 5 7 6 3 2 3 3 3
3 2 3 3 3 3 2 5 1 1 3 5 6 6 6 8 9 11 12 12 11 9 10 11 12 12 10 9 7 4 6 7 8 10 11 12 12 11 7 4 5 8 8 5 3 2 2 2 3
4 2 3 4 2 5 3 6 5 1 3 7 8 8 8 8 9 9 11 13 12 12 11 12 13 14 13 10 7 5 5 5 7 9 9 12 13 13 9 6 6 7 5 3 3 2 3 3 3
3 2 3 4 4 5 6 8 11 7 7 7 8 10 10 10 12 10 10 15 15 13 12 13 13 12 11 8 6 5 4 4 5 6 8 11 12 13 10 6 6 6 4 4 5 4 3 2 3
1 1 4 4 3 3 5 9 13 12 12 13 10 9 10 9 10 11 11 13 16 15 15 15 14 12 11 7 6 5 5 4 3 4 6 9 11 10 7 4 4 5 6 6 6 3 3 2 3
3 2 4 3 1 2 6 8 6 9 9 13 15 14 14 11 11 14 14 11 12 16 17 16 17 16 14 11 6 4 4 3 3 3 4 7 8 7 5 4 5 6 6 6 6 4 3 2 3
1 3 4 3 3 3 5 5 6 7 8 14 16 15 15 14 13 14 14 11 8 12 15 14 15 14 9 6 7 6 5 4 3 2 3 4 7 8 7 6 4 5 5 5 5 5 5 4 3
4 3 1 1 2 3 4 5 5 8 12 19 19 18 18 18 16 11 11 7 4 5 6 8 9 11 11 7 3 4 5 4 4 4 4 4 6 6 7 6 5 6 6 6 6 7 5 6 5
3 5 4 2 2 3 1 2 6 8 11 19 18 17 17 17 16 11 8 6 6 6 7 7 9 9 10 6 4 3 2 3 2 2 4 4 4 5 7 8 6 6 5 6 7 7 7 6 6
3 3 4 3 2 4 5 4 4 5 10 16 17 16 16 15 15 12 8 7 10 11 12 11 10 17 13 2 4 4 3 4 5 5 5 5 4 4 4 5 4 5 5 5 5 6 6 6 5
9 6 4 4 4 7 4 3 1 6 6 10 13 15 15 13 13 11 10 5 5 8 13 14 11 14 9 2 6 5 5 7 7 6 5 5 4 2 4 4 5 5 5 5 5 5 5 5 6
4 2 1 4 4 5 3 4 5 3 7 11 12 13 14 14 11 7 7 7 5 5 8 9 7 5 4 5 7 7 7 4 4 4 4 4 3 3 4 5 5 6 5 5 5 4 5 5 5
7 3 1 2 5 5 4 2 3 14 18 20 19 17 15 13 12 8 7 4 7 3 5 15 16 13 9 10 5 5 6 3 2 1 2 3 3 3 5 4 3 2 2 4 4 5 5 5 4
3 3 3 3 4 4 2 2 6 17 19 20 21 19 17 14 11 9 8 8 10 11 10 11 8 9 8 1 9 11 8 7 5 4 3 3 4 4 4 4 4 3 2 3 4 2 1 2 4
5 4 2 2 4 3 2 0 7 11 13 15 17 17 15 14 12 6 7 10 10 12 12 8 7 10 5 10 13 12 5 5 4 3 2 3 5 5 5 6 4 4 5 5 4 2 2 2 2
4 4 3 2 4 3 1 2 6 11 12 14 16 16 15 13 10 1 7 4 1 2 3 2 3 4 10 9 10 9 7 6 5 5 2 3 4 5 7 7 7 7 7 6 6 5 4 3 3
Wind_Direction
333 59 116 72 52 64 66 249 257 329 67 30 84 105 117 110 142 197 155 165 140 152 167 162 158 158 159 154 155 158 154 145 142 138 134 129 126 127 127 125 122 119 111 101 101 105 103 104 109
342 111 81 69 76 65 302 299 285 222 142 145 102 93 92 91 134 138 142 159 147 152 159 162 162 162 161 159 161 161 153 147 143 144 140 137 138 136 133 127 123 119 114 103 95 96 98 94 91
30 75 85 79 96 149 234 336 312 355 143 162 87 69 95 139 141 155 150 141 142 149 153 162 165 163 161 161 165 163 156 151 148 146 145 143 143 141 138 138 133 123 116 106 98 92 90 90 79
110 62 58 75 77 216 225 264 264 127 238 75 104 82 73 151 156 155 139 138 140 143 146 163 165 166 167 169 169 166 155 153 152 150 147 144 141 137 136 146 144 136 128 115 102 92 81 76 72
70 79 64 61 314 253 253 250 198 176 190 122 118 124 93 59 107 128 137 142 142 135 140 162 169 170 171 171 169 166 152 155 154 152 150 147 143 138 134 134 138 140 134 121 105 94 86 73 68
54 62 80 81 299 278 259 271 168 156 170 144 126 120 116 141 127 135 139 139 141 143 144 164 172 172 176 171 170 170 160 159 158 159 156 150 143 138 135 135 140 140 136 126 111 97 88 78 64
92 80 92 173 340 330 333 344 178 146 152 179 150 114 167 177 141 141 139 136 133 138 148 164 166 177 181 176 173 175 169 167 166 161 159 156 153 146 145 146 145 150 152 141 115 98 85 71 53
112 104 99 346 25 309 314 344 176 155 147 146 145 158 196 167 145 132 119 128 139 148 155 145 160 177 179 179 182 182 174 172 169 164 163 164 162 156 149 153 164 178 175 160 109 83 69 59 52
93 80 123 209 180 278 319 358 348 104 114 141 176 173 169 140 143 129 119 127 144 158 159 154 156 168 173 177 186 183 177 176 170 160 160 163 160 146 141 152 170 174 167 152 98 65 79 85 74
81 132 210 208 195 225 311 320 311 114 129 134 65 67 129 143 156 160 170 174 181 184 182 174 172 170 169 175 180 179 174 168 162 157 154 149 151 142 143 173 174 179 170 124 50 27 44 65 68
103 197 238 248 221 211 304 310 328 133 186 197 203 164 152 156 170 178 187 188 189 186 188 187 182 174 168 167 177 176 161 155 156 158 154 155 155 154 156 180 181 178 138 84 34 8 7 43 98
286 279 281 326 349 347 295 315 348 42 270 283 228 170 164 172 184 190 193 196 186 182 193 186 184 177 171 168 183 166 155 155 146 158 163 163 161 170 182 180 182 165 133 117 86 349 315 171 123
244 269 329 8 18 3 319 293 270 236 292 293 164 168 180 184 193 199 197 199 191 191 193 183 175 179 173 168 167 160 152 153 152 163 177 176 168 172 190 199 194 182 175 172 189 149 144 141 131
271 180 21 17 9 11 346 305 292 280 326 273 171 181 184 192 195 199 204 202 198 196 193 181 179 177 171 177 177 173 156 156 155 171 187 187 188 186 191 203 204 191 192 189 184 167 157 151 150
311 327 343 4 338 333 347 300 263 351 3 12 333 233 199 196 196 205 209 210 204 199 192 186 182 174 177 181 181 176 169 162 163 183 195 200 201 195 196 199 209 195 199 197 182 161 144 141 142
3 353 320 316 351 313 329 276 295 160 11 318 310 298 255 223 215 214 211 217 213 199 189 189 188 178 181 181 179 176 170 167 174 187 197 205 209 204 193 200 218 203 193 188 178 170 159 176 180
8 288 297 306 11 344 354 277 288 240 284 291 297 299 292 280 269 242 219 219 219 206 188 184 190 182 181 178 169 162 169 170 182 188 190 201 212 211 201 208 222 203 189 193 192 182 171 185 196
256 288 291 291 344 355 325 296 301 340 330 313 307 305 300 294 283 277 251 223 217 209 192 183 189 183 173 161 147 142 166 178 181 189 194 200 209 208 204 221 214 200 202 204 199 179 161 168 166
98 291 287 293 355 338 318 308 320 358 2 348 334 304 293 292 289 288 291 255 224 204 196 183 180 179 168 166 164 163 182 175 181 193 195 200 211 207 196 221 211 196 205 200 188 160 138 130 129
64 332 286 288 31 342 326 317 345 17 21 6 357 350 335 315 312 304 294 280 233 211 199 187 182 180 182 184 165 139 135 142 145 163 182 198 204 209 198 223 218 190 183 174 160 144 109 96 142
301 233 269 296 355 17 340 324 354 353 358 360 1 355 354 342 317 312 306 274 231 215 206 193 183 170 168 146 116 87 80 74 99 149 192 194 195 188 180 203 219 189 179 171 165 161 162 150 151
302 319 293 343 6 320 15 306 340 335 347 2 359 359 357 350 336 313 325 306 237 206 165 156 159 143 121 103 128 159 153 163 171 174 189 181 183 187 184 179 195 187 182 175 172 173 162 151 152
331 34 48 38 42 315 293 259 313 352 356 355 351 359 358 350 346 344 352 14 51 66 79 98 109 90 92 114 167 227 128 131 149 156 175 186 192 197 195 185 185 188 190 186 176 167 165 170 169
10 359 16 25 55 271 229 205 315 358 336 338 343 354 353 351 352 351 352 37 44 45 49 52 73 84 65 332 214 181 152 175 184 190 199 196 207 211 192 183 183 198 197 193 191 176 181 192 196
5 6 332 305 218 236 195 165 341 322 333 341 340 348 346 351 356 2 16 22 77 64 57 46 51 77 85 304 257 152 184 206 204 194 192 196 198 186 191 173 184 199 196 202 199 180 187 196 213
316 65 240 278 278 293 246 208 168 340 332 346 344 345 348 353 356 2 21 44 84 125 117 100 88 96 65 333 255 170 186 199 203 191 187 192 168 173 166 175 191 197 190 211 209 185 197 207 220
328 348 250 241 293 287 284 353 345 351 349 349 347 346 344 340 342 341 350 18 83 91 174 164 162 171 186 245 231 93 68 59 36 119 200 193 174 170 168 170 169 165 185 230 217 210 214 208 224
40 335 14 357 290 273 278 62 345 348 340 340 340 338 333 330 334 337 5 20 62 64 63 95 131 207 217 224 59 62 73 103 144 166 185 198 194 185 154 160 154 130 161 216 218 228 254 243 246
353 1 316 241 248 277 266 61 342 333 329 333 332 330 329 331 331 343 50 39 37 60 65 84 202 205 137 95 83 77 80 128 159 186 215 228 211 182 181 191 168 174 199 202 189 208 201 207 237
4 295 267 263 273 281 275 258 295 335 344 347 340 335 343 345 327 159 130 112 190 126 74 340 275 125 111 101 111 138 178 165 190 205 201 284 268 212 204 186 174 184 192 192 191 184 194 199 212
Height
1497 1496 1497 1499 1504 1513 1518 1512 1505 1502 1502 1501 1500 1501 1503 1507 1511 1518 1511 1510 1512 1514 1516 1519 1521 1523 1526 1527 1529 1531 1532 1533 1534 1535 1536 1537 1538 1539 1540 1540 1541 1542 1543 1543 1543 1543 1544 1545 1546
1497 1497 1499 1500 1512 1525 1520 1509 1505 1501 1502 1502 1502 1503 1504 1506 1507 1508 1509 1511 1513 1515 1517 1519 1521 1524 1526 1527 1529 1530 1532 1534 1535 1536 1537 1539 1540 1540 1541 1542 1542 1543 1543 1544 1544 1545 1545 1546 1547
1497 1497 1500 1504 1516 1521 1518 1508 1505 1502 1503 1503 1503 1504 1506 1507 1508 1509 1510 1511 1513 1516 1518 1520 1522 1524 1526 1528 1529 1531 1533 1534 1535 1536 1538 1540 1541 1542 1542 1543 1543 1544 1544 1545 1545 1546 1547 1547 1548
1498 1499 1501 1510 1516 1512 1508 1505 1503 1503 1504 1503 1504 1506 1507 1509 1509 1510 1511 1512 1514 1516 1519 1521 1523 1524 1526 1528 1530 1531 1532 1534 1536 1537 1539 1540 1542 1543 1544 1544 1545 1545 1545 1546 1547 1547 1548 1549 1549
1498 1498 1508 1516 1513 1508 1504 1502 1501 1504 1504 1503 1504 1507 1508 1509 1509 1511 1512 1513 1514 1517 1520 1522 1523 1525 1526 1528 1530 1531 1533 1534 1536 1538 1540 1541 1542 1543 1545 1545 1546 1546 1547 1547 1548 1548 1549 1550 1551
1498 1501 1515 1520 1513 1505 1501 1499 1501 1502 1503 1504 1505 1506 1509 1510 1510 1511 1513 1514 1516 1517 1519 1521 1523 1525 1527 1528 1530 1532 1534 1535 1537 1539 1541 1542 1543 1544 1545 1546 1547 1548 1548 1548 1548 1549 1549 1550 1552
1499 1507 1516 1516 1513 1506 1500 1498 1499 1500 1503 1504 1504 1506 1508 1509 1511 1512 1514 1515 1516 1518 1520 1522 1523 1525 1527 1529 1530 1532 1534 1536 1537 1539 1541 1543 1544 1544 1545 1546 1547 1548 1549 1550 1550 1550 1551 1552 1553
1498 1506 1515 1514 1514 1508 1500 1497 1498 1499 1502 1504 1504 1505 1506 1508 1511 1513 1514 1515 1517 1519 1521 1522 1524 1525 1527 1528 1530 1532 1535 1536 1538 1539 1542 1543 1544 1545 1546 1547 1548 1549 1550 1551 1552 1551 1552 1554 1554
1499 1510 1516 1512 1511 1505 1500 1499 1499 1499 1501 1503 1503 1503 1504 1505 1509 1512 1513 1514 1516 1518 1520 1521 1523 1524 1526 1528 1530 1532 1534 1536 1537 1540 1542 1544 1545 1546 1547 1547 1548 1550 1551 1552 1552 1552 1553 1553 1554
1501 1512 1510 1503 1502 1502 1500 1500 1499 1500 1501 1502 1502 1502 1503 1505 1507 1510 1511 1513 1514 1516 1518 1519 1521 1523 1525 1528 1529 1530 1533 1534 1536 1539 1541 1544 1546 1546 1546 1547 1548 1550 1551 1552 1553 1553 1553 1555 1555
1502 1506 1502 1500 1499 1500 1501 1501 1499 1499 1501 1500 1500 1500 1502 1504 1507 1509 1511 1512 1513 1516 1517 1518 1520 1522 1524 1526 1528 1529 1531 1533 1536 1538 1540 1543 1545 1546 1546 1547 1548 1548 1549 1551 1553 1555 1556 1556 1556
1503 1501 1501 1500 1500 1500 1500 1500 1499 1499 1499 1498 1498 1500 1501 1502 1504 1506 1508 1510 1512 1514 1516 1517 1519 1521 1523 1525 1527 1530 1532 1534 1536 1538 1540 1542 1544 1546 1546 1546 1547 1548 1549 1551 1553 1554 1556 1557 1557
1502 1501 1500 1501 1500 1499 1499 1498 1499 1497 1497 1495 1495 1498 1499 1500 1502 1505 1508 1510 1511 1513 1515 1517 1519 1521 1522 1524 1526 1529 1531 1533 1536 1537 1540 1541 1544 1545 1546 1547 1547 1548 1549 1550 1552 1553 1555 1556 1557
1502 1501 1501 1501 1501 1500 1500 1498 1498 1495 1495 1495 1494 1495 1497 1499 1501 1503 1506 1508 1509 1512 1514 1516 1518 1520 1522 1523 1524 1528 1529 1532 1534 1536 1539 1541 1543 1544 1545 1545 1546 1547 1549 1550 1552 1552 1553 1555 1556
1501 1502 1503 1502 1501 1501 1502 1500 1498 1497 1495 1495 1496 1496 1497 1498 1499 1500 1502 1504 1507 1509 1512 1514 1516 1518 1520 1522 1524 1526 1529 1531 1533 1535 1537 1539 1540 1543 1545 1545 1545 1546 1547 1549 1550 1551 1553 1554 1555
1502 1506 1511 1504 1502 1501 1506 1508 1498 1497 1497 1497 1496 1496 1497 1497 1498 1499 1501 1503 1505 1507 1509 1512 1515 1516 1519 1521 1523 1525 1527 1529 1531 1533 1535 1537 1539 1541 1543 1544 1546 1547 1547 1548 1550 1551 1552 1553 1554
1509 1515 1513 1507 1503 1502 1504 1506 1498 1498 1498 1498 1497 1497 1497 1497 1497 1498 1499 1500 1502 1504 1506 1508 1511 1513 1516 1518 1521 1523 1526 1528 1530 1531 1532 1535 1538 1540 1541 1543 1545 1546 1547 1547 1548 1550 1551 1552 1553
1514 1514 1513 1512 1506 1505 1506 1505 1499 1499 1500 1499 1498 1497 1496 1494 1494 1496 1497 1497 1499 1500 1502 1504 1507 1510 1512 1515 1517 1520 1523 1525 1527 1529 1530 1533 1535 1537 1539 1541 1543 1544 1545 1545 1546 1547 1548 1550 1551
1509 1513 1516 1512 1507 1508 1509 1508 1502 1502 1500 1499 1497 1496 1494 1492 1490 1490 1490 1490 1492 1494 1496 1497 1501 1505 1507 1509 1512 1515 1518 1521 1524 1527 1529 1531 1534 1536 1538 1539 1541 1542 1543 1545 1546 1545 1546 1547 1549
1511 1516 1516 1511 1508 1510 1512 1511 1507 1504 1504 1504 1500 1495 1492 1489 1487 1486 1485 1485 1484 1486 1489 1491 1494 1498 1501 1504 1507 1510 1514 1518 1522 1524 1527 1528 1531 1534 1536 1538 1537 1539 1541 1542 1544 1544 1546 1548 1548
1513 1516 1514 1514 1510 1511 1514 1514 1510 1506 1504 1502 1498 1494 1490 1486 1483 1482 1480 1481 1482 1481 1482 1483 1485 1489 1496 1500 1505 1508 1512 1515 1519 1522 1525 1527 1529 1531 1532 1535 1536 1537 1539 1541 1542 1543 1543 1545 1546
1517 1511 1510 1511 1516 1521 1518 1527 1514 1512 1506 1501 1498 1492 1488 1482 1479 1478 1477 1476 1477 1477 1477 1478 1480 1482 1490 1500 1508 1512 1513 1514 1516 1519 1521 1524 1527 1530 1530 1531 1532 1533 1535 1536 1537 1538 1539 1541 1542
1515 1512 1514 1516 1520 1523 1520 1525 1519 1514 1510 1505 1500 1495 1489 1483 1478 1475 1475 1473 1474 1475 1474 1473 1476 1481 1490 1502 1509 1513 1512 1513 1517 1518 1518 1520 1522 1525 1526 1527 1527 1530 1532 1533 1533 1533 1533 1535 1537
1514 1515 1518 1522 1525 1529 1521 1523 1523 1519 1516 1511 1504 1497 1490 1484 1478 1475 1474 1473 1473 1473 1474 1473 1475 1474 1493 1505 1509 1510 1512 1514 1516 1516 1516 1517 1518 1521 1523 1525 1526 1527 1529 1529 1530 1530 1530 1530 1532
1522 1528 1537 1535 1533 1526 1518 1522 1525 1516 1514 1511 1506 1499 1492 1485 1480 1477 1474 1473 1473 1472 1472 1474 1476 1472 1487 1496 1504 1506 1509 1512 1513 1514 1516 1516 1517 1518 1522 1524 1525 1526 1525 1525 1525 1525 1526 1528 1528
1529 1534 1546 1551 1543 1531 1518 1524 1522 1514 1512 1510 1506 1499 1492 1485 1482 1479 1477 1474 1474 1476 1474 1473 1481 1487 1487 1493 1500 1503 1506 1510 1511 1512 1513 1513 1513 1516 1518 1520 1523 1523 1521 1522 1521 1521 1522 1523 1524
1539 1538 1539 1545 1541 1541 1525 1519 1514 1510 1507 1504 1500 1496 1491 1488 1484 1481 1478 1477 1472 1475 1474 1470 1477 1484 1487 1495 1502 1503 1504 1508 1511 1511 1511 1509 1510 1512 1514 1517 1519 1519 1519 1519 1518 1517 1518 1517 1519
1541 1542 1551 1549 1549 1545 1530 1527 1531 1519 1514 1508 1502 1497 1491 1490 1488 1484 1481 1477 1473 1474 1477 1473 1478 1490 1496 1500 1499 1498 1499 1504 1509 1508 1505 1504 1507 1509 1508 1512 1514 1515 1516 1517 1517 1515 1517 1516 1516
1546 1547 1546 1546 1548 1546 1535 1537 1530 1526 1521 1513 1506 1500 1495 1492 1488 1486 1485 1484 1483 1484 1486 1485 1491 1495 1496 1495 1493 1496 1501 1506 1508 1505 1503 1502 1504 1505 1507 1509 1510 1512 1514 1513 1513 1513 1512 1513 1514
1549 1547 1546 1548 1545 1537 1536 1543 1530 1525 1520 1514 1508 1502 1496 1494 1491 1489 1490 1489 1489 1486 1485 1488 1488 1488 1490 1493 1494 1496 1501 1504 1504 1502 1500 1502 1503 1505 1506 1505 1507 1510 1512 1512 1511 1511 1512 1512 1512